Location: Bruderhein
(53.8035°N, 112.9265°W)
Time: 01:36:22
(UTC+00:00)

STRAND 1 - Pass Details

Date: 03 April 2023
Orbit: 767 x 779 km, 98.4° (Epoch: 31 May)

Event Time Altitude Azimuth Distance (km) Brightness Sun altitude
Rises 12:02:31 0° 131° (SE) 3,246 ? -9.0°
Reaches altitude 10° 12:05:02 10° 121° (ESE) 2,321 ? -8.6°
Maximum altitude 12:09:30 32° 60° (ENE) 1,318 ? -8.0°
Drops below altitude 10° 12:13:59 10° 359° (N) 2,328 ? -7.4°
Sets 12:16:30 0° 350° (N) 3,257 ? -7.1°
